Regional Weather Roundup
Issued by NWS

Home | Current Version | Previous Version | Graphics & Text | Print | Product List | Glossary On
Versions: 1 2 3 4 5 6 7 8 9 10 11 12 13 14 15 16 17 18 19 20 21 22 23 24 25 26 27 28 29 30 31 32 33 34 35 36 37 38 39 40 41 42 43 44 45 46 47 48 49 50
000
ASUS43 KOAX 210610
RWRNE

WEATHER ROUNDUP FOR NEBRASKA
NATIONAL WEATHER SERVICE OMAHA NE
1200 AM CST SAT JAN 21 2017

NOTES: SATELLITE DATA IS BEING USED TO AUGMENT CLOUD COVER ABOVE
       12000 FEET.
       "FAIR" INDICATES FEW OR NO CLOUDS BELOW 12,000 FEET WITH NO
       SIGNIFICANT WEATHER AND/OR OBSTRUCTIONS TO VISIBILITY.

  * THESE STATIONS DO NOT REPORT WEATHER SUCH AS RAIN...SNOW OR FOG.

NEZ001>004-019>022-054>056-210700-
NEBRASKA PANHANDLE

CITY           SKY/WX    TMP DP  RH WIND       PRES   REMARKS
SCOTTSBLUFF    CLEAR     29  25  85 NW3       29.41S
6HR MIN TEMP:  29; 6HR MAX TEMP:  37; 6HR PCP:  0.01;

ALLIANCE       CLEAR     30  29  96 W5        29.39R WCI  25
6HR MIN TEMP:  29; 6HR MAX TEMP:  37; 6HR PCP:  0.02;

CHADRON        CLOUDY    34  32  92 SW7       29.39R WCI  28
6HR MIN TEMP:  34; 6HR MAX TEMP:  36;

KIMBALL        CLOUDY    31  24  76 NW8       29.42S WCI  23
SIDNEY         PTCLDY    30  26  85 W9        29.42R WCI  22
6HR MIN TEMP:  29; 6HR MAX TEMP:  36;

$$

NEZ057>060-069>072-079>082-210700-
SOUTHWEST NEBRASKA

CITY           SKY/WX    TMP DP  RH WIND       PRES   REMARKS
NORTH PLATTE   CLOUDY    32  30  92 NW5       29.41S WCI  27
6HR MIN TEMP:  32; 6HR MAX TEMP:  36; 6HR PCP: TRACE;

IMPERIAL       PTCLDY    35  32  88 N9        29.42F WCI  28
6HR MIN TEMP:  35; 6HR MAX TEMP:  40; 6HR PCP: TRACE;

LEXINGTON      CLOUDY    34  32  93 NW5       29.40S WCI  30
MCCOOK         MOCLDY    35  33  92 NW8       29.43R WCI  29
6HR MIN TEMP:  34; 6HR MAX TEMP:  38; 6HR PCP:  0.01;

OGALLALA       CLOUDY    37  35  93 CALM      29.41S
$$

NEZ005>010-023>029-035>040-094-210700-
NORTH CENTRAL NEBRASKA

CITY           SKY/WX    TMP DP  RH WIND       PRES   REMARKS
VALENTINE      CLOUDY    34  29  82 SW8       29.35S WCI  27
6HR MIN TEMP:  33; 6HR MAX TEMP:  37;

AINSWORTH      CLOUDY    34  32  90 W7        29.35F WCI  28
BROKEN BOW     CLOUDY    35  33  92 W3        29.37S
6HR MIN TEMP:  34; 6HR MAX TEMP:  38;

O`NEILL        CLOUDY    38  38  99 SW8       29.36S FOG     WCI  32
ORD            PTCLDY    36  34  92 SW8       29.36F WCI  30
6HR MIN TEMP:  36; 6HR MAX TEMP:  39;

THEDFORD       CLOUDY    37  35  94 W10       29.39S WCI  29
$$

NEZ041-046>049-061>064-073>077-083>087-210700-
SOUTH CENTRAL NEBRASKA

CITY           SKY/WX    TMP DP  RH WIND       PRES   REMARKS
GRAND ISLAND   CLOUDY    37  37 100 W9        29.40R WCI  30
6HR MIN TEMP:  37; 6HR MAX TEMP:  39;

AURORA         CLOUDY    37  37 100 W7        29.39S FOG     WCI  32
HASTINGS       CLOUDY    37  35  92 W6        29.40F WCI  32
6HR MIN TEMP:  36; 6HR MAX TEMP:  41;

HEBRON         FOG       38  38 100 W5        29.41S VSB 1/4 WCI  34
HOLDREGE       CLOUDY    35  34  97 W9        29.39F WCI  27
KEARNEY *      MOCLDY    36 N/A N/A CALM      29.40S
YORK           FOG       37  37 100 W7        29.39S VSB 1/2 WCI  32
$$

NEZ011>018-030>034-042>045-210700-
NORTHEAST NEBRASKA

CITY           SKY/WX    TMP DP  RH WIND       PRES   REMARKS
NORFOLK        FOG       38  37  97 S7        29.37F VSB 1/2 WCI  33
6HR MIN TEMP:  38; 6HR MAX TEMP:  39; 6HR PCP:  0.03;

ALBION         DRZL/FOG N/A N/A N/A CALM      29.38S VSB 1/2
BLAIR          LGT RAIN  40  40  98 E7        29.39F VSB 1/4
FREMONT        FOG       40  40 100 CALM      29.40S VSB 1/4
TEKAMAH        FOG       38  37  97 SE6       29.39F VSB 1/4 WCI  33
6HR MIN TEMP:  37; 6HR MAX TEMP:  40; 6HR PCP:  0.03;

WAYNE          FOG       38  37  99 CALM      29.38F VSB 1
$$

NEZ050>053-065>068-078-088>093-210700-
SOUTHEAST NEBRASKA

CITY           SKY/WX    TMP DP  RH WIND       PRES   REMARKS
LINCOLN        FOG       41  41 100 S3        29.41S VSB 1/2
6HR MIN TEMP:  41; 6HR MAX TEMP:  43; 6HR PCP:  0.05;

OMAHA EPPLEY   CLOUDY    40  37  89 CALM      29.40F FOG
6HR MIN TEMP:  40; 6HR MAX TEMP:  42; 6HR PCP:  0.03;

BEATRICE       FOG       41  41 100 CALM      29.39S VSB 1/4
FALLS CITY     FOG       44  44 100 S7        29.41F VSB 1
6HR MIN TEMP:  42; 6HR MAX TEMP:  45; 6HR PCP:  0.02;

NEBRASKA CITY  FOG       41  41 100 S6        29.41R VSB 1/4
PLATTSMOUTH    FOG       40  38  93 SE6       29.39F VSB 1/4
$$

NEZ044-045-051>053-067-210700-
OMAHA AREA

CITY           SKY/WX    TMP DP  RH WIND       PRES   REMARKS
OMAHA EPPLEY   CLOUDY    40  37  89 CALM      29.40F FOG
6HR MIN TEMP:  40; 6HR MAX TEMP:  42; 6HR PCP:  0.03;

BLAIR          LGT RAIN  40  40  98 E7        29.39F VSB 1/4
FREMONT        FOG       40  40 100 CALM      29.40S VSB 1/4
MILLARD        FOG       43  42  97 CALM      29.40F VSB 1/4
OFFUTT AFB     LGT RAIN  41  41 100 E3        29.39F VSB 1/2
PLATTSMOUTH    FOG       40  38  93 SE6       29.39F VSB 1/4
WAHOO          FOG       38  37  98 SE3       29.39F VSB 1/4
$$



USA.gov is the U.S. government's official web portal to all federal, state and local government web resources and services.